Time,TemperatureF,DewpointF,PressureIn,WindDirection,WindDirectionDegrees,WindSpeedMPH,WindSpeedGustMPH,Humidity,HourlyPrecipIn,Conditions,Clouds,dailyrainin,SoftwareType,DateUTC
2013-01-23 19:43:00,15.0,12.0,-100.00,SSW,197,89.0,-999.0,84,6.22,,,-99.99,,2013-01-24 00:43:00,
2013-01-23 19:53:00,14.0,10.0,-100.00,SSW,210,22.0,-999.0,84,0.00,,,-99.99,,2013-01-24 00:53:00,
2013-01-23 20:03:00,14.0,12.0,-100.00,SSE,151,6.0,-999.0,84,0.00,,,-99.99,,2013-01-24 01:03:00,
2013-01-23 20:12:00,15.0,12.0,-100.00,SSW,207,1.0,-999.0,84,0.00,,,-99.99,,2013-01-24 01:12:00,
2013-01-23 20:23:00,15.0,12.0,-100.00,SSW,210,0.0,-999.0,84,0.00,,,-99.99,,2013-01-24 01:23:00,
2013-01-23 20:33:00,14.0,10.0,-100.00,South,172,0.0,-999.0,84,0.00,,,-99.99,,2013-01-24 01:33:00,
2013-01-23 20:43:00,15.0,12.0,-100.00,South,169,0.0,-999.0,84,0.00,,,-99.99,,2013-01-24 01:43:00,
2013-01-23 20:52:00,14.0,10.0,-100.00,SSW,194,0.0,-999.0,84,1.14,,,-99.99,,2013-01-24 01:52:00,
2013-01-23 21:03:00,15.0,12.0,-100.00,South,183,1.0,-999.0,85,0.00,,,-99.99,,2013-01-24 02:03:00,
2013-01-23 21:12:00,15.0,12.0,-100.00,SSE,160,0.0,-999.0,85,0.00,,,-99.99,,2013-01-24 02:12:00,
2013-01-23 21:23:00,14.0,10.0,-100.00,SSE,168,1.0,-999.0,84,0.00,,,-99.99,,2013-01-24 02:23:00,
2013-01-23 21:33:00,14.0,10.0,-100.00,SSE,160,0.0,-999.0,84,0.00,,,-99.99,,2013-01-24 02:33:00,
2013-01-23 21:42:00,14.0,10.0,-100.00,SSE,160,0.0,-999.0,84,0.00,,,-99.99,,2013-01-24 02:42:00,
2013-01-23 21:52:00,14.0,10.0,-100.00,SSE,160,0.0,-999.0,84,0.00,,,-99.99,,2013-01-24 02:52:00,
2013-01-23 22:03:00,13.0,10.0,-100.00,South,179,0.0,-999.0,85,-99.99,,,-99.99,,2013-01-24 03:03:00,
2013-01-23 22:12:00,14.0,10.0,-100.00,SSE,160,0.0,-999.0,85,-99.99,,,-99.99,,2013-01-24 03:12:00,
2013-01-23 22:22:00,13.0,10.0,-100.00,SSW,204,1.0,-999.0,85,-99.99,,,-99.99,,2013-01-24 03:22:00,
2013-01-23 22:33:00,13.0,10.0,-100.00,SSW,200,1.0,-999.0,85,9.06,,,-99.99,,2013-01-24 03:33:00,
2013-01-23 22:43:00,13.0,10.0,-100.00,South,183,1.0,-999.0,85,9.06,,,-99.99,,2013-01-24 03:43:00,
2013-01-23 22:52:00,13.0,10.0,-100.00,SE,145,1.0,-999.0,85,18.70,,,-99.99,,2013-01-24 03:52:00,
2013-01-23 23:03:00,13.0,10.0,-100.00,SSW,194,0.0,-999.0,84,17.01,,,-99.99,,2013-01-24 04:03:00,
2013-01-23 23:12:00,13.0,10.0,-100.00,South,169,0.0,-999.0,85,14.17,,,-99.99,,2013-01-24 04:12:00,
2013-01-23 23:22:00,13.0,10.0,-100.00,South,189,0.0,0.0,85,9.06,,,-99.99,,2013-01-24 04:22:00,
2013-01-23 23:33:00,13.0,10.0,-100.00,South,183,0.0,0.0,85,14.17,,,-99.99,,2013-01-24 04:33:00,
2013-01-23 23:42:00,13.0,10.0,-100.00,SSW,197,0.0,0.0,86,9.06,,,-99.99,,2013-01-24 04:42:00,
2013-01-23 23:52:00,14.0,10.0,-100.00,ESE,114,0.0,0.0,85,10.79,,,-99.99,,2013-01-24 04:52:00,